OPS 4682 DEB, 51498

Orbit data source: Space-Track

OPS 4682 DEB, 51498 is space debris in LEO originally from a launch on Sat, 03 Apr 1965 UTC launched from the Air Force Western Test Range (AFWTR). Debris objects in space refer to the collection of defunct objects orbiting the Earth. Examples of debris include non-operational satellites, rocket bodies, and fragments generated from explosions, collisions, or faulty payload assembly.

Loading next visibility...
Identifier
51498, 1965-027GJ
Orbit
LEO
Country
Flag of USUS
Related business
Manufacturer
Unknown
Mission
Spacecraft
Bus & Motor
Unknown
Mass
Unknown
Launch date (UTC)
1965-04-03 (61 years ago)
Launch vehicle
Unknown
Launch site
Air Force Western Test Range (AFWTR)
Object type
Payload
Rocket body
Debris
Shape & HBR
Unknown
Radar Cross Section
Medium (>0.1 m² and <1 m²)

Expand to show TLE details & history
Last TLE update: 5 days ago

TLE from 5 days ago
0 OPS 4682 DEB
1 51498U 65027GJ  26204.45050286  .00000578  00000-0  19546-2 0  9998
2 51498  90.2477  13.4473 0024411 338.8954  21.1157 12.97806841530711
Epoch: 2026-07-23T10:48Z
TLE epoch observation values (Epoch: 2026-07-23T10:48:43.447Z)
Latitude
-0.00005°
Longitude
-89.92504°
Altitude
1,256.157 km
Speed
7.235 km/s
True Right ascension
00h 53m 47s
True Declination
0° 00' 00"
Sunlit
Object was in daylight at epoch
Visualization orbit readout
Latitude
Unknown
Longitude
Unknown
Altitude
Unknown
Speed
Unknown
Apparent Right ascension
Unknown
Apparent Declination
Unknown
Sunlit
N/A
Visualization observer readout
Local Sidereal Time
13:09:15
Azimuth
Unknown
Elevation
Unknown
Doppler factor
Unknown
Orbital elements
Apogee altitude
1,286.486 km
Perigee altitude
1,249.157 km
Semi-major axis
7,645.959 km
Eccentricity
0.00244
Inclination
90.2477°
RAAN
13.4473°
Arg. of periapsis
338.8954°
True anomaly
21.21676°
Mean anomaly
21.1157°
Eccentric anomaly
21.1662°
Mean motion
3.24635 °/min
Orbital period
110.89 mins
BSTAR
0.0019546
Loading maneuver chart data...
Computing Atmospheric mass density...
Loading historical data...
Loading historical data...
Loading historical data...
Loading historical data...
Loading historical data...
Loading historical data...
Loading historical data...

Documentation

Showing up to 5 results
|